{"data":{"norad_id":61930,"epoch":"2026-09-21T16:05:09.324384Z","epoch_age_seconds":84525,"freshness":"FRESH","line1":"1 61930U 24207U   26264.67024681  .00017029  00000+0  62706-3 0  9990","line2":"2 61930  42.9994 251.5647 0000941 260.9262  99.1483 15.27572492105328","mean_motion":15.27572492,"eccentricity":9.41e-5,"inclination_deg":42.9994,"raan_deg":251.5647,"arg_perigee_deg":260.9262,"mean_anomaly_deg":99.1483,"bstar":0.00062706,"rev_number":10532,"period_min":94.267212033562,"perigee_km":482.42593805755,"apogee_km":483.71721751189,"semimajor_km":6861.2085777847,"source":"CELESTRAK","updated_at":"2026-09-22T09:00:49.452299Z"}}